Regional Weather Roundup
Issued by NWS Jackson, KY

Home | Current Version | Previous Version | Graphics & Text | Print | Product List | Glossary On
Versions: 1 2 3 4 5 6 7 8 9 10 11 12 13 14 15 16 17 18 19 20 21 22 23 24 25 26 27
000
ASUS43 KJKL 280310
RWRJKL

EAST KENTUCKY HOURLY WEATHER ROUNDUP
NATIONAL WEATHER SERVICE JACKSON KY
1100 PM EDT WED JUL 27 2016

NOTE: "FAIR" INDICATES FEW OR NO CLOUDS BELOW 12,000 FEET WITH
NO SIGNIFICANT WEATHER AND/OR OBSTRUCTIONS TO VISIBILITY.

* THESE REPORTS ARE NOT UNDER NWS QUALITY CONTROL AND MAY NOT
  REPORT WEATHER SUCH AS PRECIPITATION AND FOG.

KYZ079-080-083-085-087-088-110-112-115-119-120-280400
...EASTERN KENTUCKY...

CITY           SKY/WX    TMP DP  RH WIND       PRES   REMARKS
JACKSON        LGT RAIN  72  70  93 VRB3      30.03R FOG
LONDON         CLOUDY    76  70  82 E9        30.02F THUNDER
SOMERSET*      LGT RAIN  73  72  94 SE3       30.01S
MONTICELLO*    CLOUDY   N/A N/A N/A SE9       30.01R
WILLIAMSBURG*  CLOUDY    68  68 100 S7        30.05R VSB 1/2
MIDDLESBORO*   TSTM      76  72  87 S21G32    30.05R
HARLAN APT*    MOCLDY    77  68  73 CALM      30.03S
PIKE CO APT*     N/A     73  73 100 CALM      30.02F
MOREHEAD APT*  PTCLDY    75  72  88 S6        30.00S
ASHLAND*       PTCLDY    75  72  88 CALM      29.95R
$$

KYZ035-036-041-042-044-050-067-078-099-280400
...CENTRAL KENTUCKY...

CITY           SKY/WX    TMP DP  RH WIND       PRES   REMARKS
MT STERLING*   CLOUDY    77  68  73 E6        30.01R
FLEMING/MASON* MOCLDY    77  74  89 S5        30.00R
DANVILLE*      CLOUDY    72  70  94 CALM      29.99S
LEXINGTON      MOCLDY    82  72  71 E6        29.97S
FRANKFORT      CLOUDY    79  74  84 CALM      29.94F
LOUISVILLE     CLOUDY    80  72  76 E5        29.93F THUNDER
LEBANON*         N/A     75  75 100 CALM      29.97R
GLASGOW*       CLOUDY    77  72  83 CALM      29.95S
BOWLING GREEN  CLOUDY    77  73  87 N5        29.95R
$$

KYZ091>093-OHZ055-061-077-WVZ005-015-034-035-042-280400
...SOUTHERN OHIO/WEST VIRGINIA...

CITY           SKY/WX    TMP DP  RH WIND       PRES   REMARKS
COVINGTON      CLOUDY    80  72  76 CALM      29.96R
COLUMBUS       MOCLDY    80  65  59 NE3       29.95R
DAYTON         MOCLDY    78  64  61 N6        29.98R
WILMINGTON     CLOUDY    78  73  84 SW5       29.96R
HUNTINGTON       N/A     73  72  96 SW5       29.96R FOG
CHARLESTON     MOCLDY    78  76  93 CALM      29.97R
PINEVILLE*       N/A     73  70  89 MISG      30.08R FOG
BECKLEY        FOG       70  69  97 N5        30.07F VSB 1/4
BLUEFIELD        N/A     71  70  96 CALM      30.09F FOG
LOGAN CO APT*    N/A     72  72 100 CALM      30.01S
$$

VAZ002-007-008-TNZ017-027-036-066-071-280400
...SOUTHWEST VIRGINIA/EAST TENNESSEE...

CITY           SKY/WX    TMP DP  RH WIND       PRES   REMARKS
WISE*            N/A     70  70 100 CALM      30.11F THUNDER
JONESVILLE*      N/A     73  70  88 CALM      30.05R
ABINGDON*        N/A     78  72  82 NE6       30.05F
BRISTOL        PTCLDY    75  72  90 N3        30.02R
MORRISTOWN*    MOCLDY    86  72  62 W6G13     30.00R HX  92
SEVIERVILLE*   CLOUDY    84  70  61 SW6       29.98S
KNOXVILLE      MOCLDY    84  73  69 S13       29.98R HX  90
OAK RIDGE      CLOUDY    86  70  58 VRB3      29.99S HX  90
CROSSVILLE     PTCLDY    77  70  79 CALM      30.05R
NASHVILLE      CLOUDY    83  71  67 S3        29.95R
$$

...KEY TO REMARKS...
VSB - VISIBILITY IN MILES
WCI - WIND CHILL INDEX
HX  - HEAT INDEX

$$




USA.gov is the U.S. government's official web portal to all federal, state and local government web resources and services.